This demonstration page uses our WeatherBlox Daily Observations layout. Learn more.

38.88101, -77.10428

Hourly Observations for September 4, 2018

Temp ( °F °C ) Dew Point ( °F °C ) Humidity (%) Winds ( mph kmh ) Pressure ( in mb ) Visibility ( mi km ) Precip ( " mm )
12:52 am 00:52 Partly Cloudy 83 28.3 77 25 82 82 S 7 11 30.24 1024 10 16.0934 0 0
1:52 am 01:52 Mostly Cloudy 81 27.2 77 25 88 88 S 6 9 30.23 1024 10 16.0934 0 0
2:52 am 02:52 Mostly Cloudy 81 27.2 76 24.4 85 85 S 5 7 30.22 1024 10 16.0934 0 0
3:52 am 03:52 Mostly Cloudy 81 27.2 76 24.4 85 85 Calm 30.22 1023 10 16.0934 0 0
4:52 am 04:52 Mostly Cloudy 80 26.7 76 24.4 87 87 SSW 5 7 30.22 1023 10 16.0934 0 0
5:52 am 05:52 Mostly Clear 79 26.1 76 24.4 90 90 S 5 7 30.23 1024 10 16.0934 0 0
6:52 am 06:52 Mostly Sunny 79 26.1 75 23.9 88 88 Calm 30.24 1024 10 16.0934 0 0
7:52 am 07:52 Mostly Sunny 81 27.2 77 25 88 88 Calm 30.25 1024 10 16.0934 0 0
8:52 am 08:52 Mostly Sunny 86 30 75 23.9 70 70 NNW 5 7 30.25 1025 10 16.0934 0 0
9:52 am 09:52 Mostly Sunny 87 30.6 76 24.4 70 70 Calm 30.27 1025 10 16.0934 0 0
10:52 am 10:52 Mostly Sunny 90 32.2 74 23.3 59 59 Calm 30.27 1025 10 16.0934 0 0
11:52 am 11:52 Mostly Sunny 94 34.4 72 22.2 49 49 Calm 30.26 1025 10 16.0934 0 0
12:52 pm 12:52 Mostly Cloudy 94 34.4 73 22.8 51 51 VRB 3 6 30.25 1024 10 16.0934 0 0
1:42 pm 13:42 Mostly Cloudy with Light Rain 90 32.2 73 22.8 58 58 N 15 24 30.24 1024 10 16.0934 0 0.0254
1:52 pm 13:52 Mostly Cloudy with Light Rain 88 31.1 72 22.2 59 59 NNE 10 17 30.23 1024 10 16.0934 0 0.0254
2:52 pm 14:52 Mostly Cloudy 94 34.4 73 22.8 51 51 E 3 6 30.22 1023 10 16.0934 0 0.0254
3:26 pm 15:26 Mostly Cloudy 91 32.8 72 22.2 54 54 WNW 8 13 30.21 1023 10 16.0934 0 0
3:33 pm 15:33 Mostly Cloudy with Thunderstorms 91 32.8 72 22.2 54 54 W 6 9 30.21 1023 10 16.0934 0 0
3:52 pm 15:52 Mostly Cloudy with Thunderstorms 87 30.6 72 22.2 61 61 NE 18 30 30.21 1023 10 16.0934 0 0
4:26 pm 16:26 Mostly Cloudy with Light Rain 83 28.3 72 22.2 70 70 ESE 6 9 30.21 1023 10 16.0934 0 0.0254
4:52 pm 16:52 Mostly Cloudy 85 29.4 72 22.2 65 65 Calm 30.2 1023 10 16.0934 0 0.0254
5:52 pm 17:52 Mostly Cloudy 85 29.4 75 23.9 72 72 SSE 5 7 30.19 1023 10 16.0934 0 0
6:52 pm 18:52 Partly Cloudy 84 28.9 73 22.8 70 70 S 6 9 30.19 1023 10 16.0934 0 0
7:52 pm 19:52 Partly Cloudy 84 28.9 72 22.2 67 67 SE 3 6 30.19 1022 10 16.0934 0 0
8:52 pm 20:52 Partly Cloudy 83 28.3 74 23.3 74 74 SSE 3 6 30.21 1023 10 16.0934 0 0
9:52 pm 21:52 Partly Cloudy 82 27.8 74 23.3 77 77 SSE 3 6 30.21 1023 10 16.0934 0 0
10:52 pm 22:52 Partly Cloudy 82 27.8 74 23.3 77 77 Calm 30.22 1023 10 16.0934 0 0
11:52 pm 23:52 Mostly Cloudy 81 27.2 75 23.9 82 82 Calm 30.22 1023 10 16.0934 0 0

Powered by AerisWeather